Home   Weather   Albany   Past weeks
Flag for USA

Past Weather in Albany, New York, USA — Yesterday and Last 2 Weeks

Now
61 °F

Mostly cloudy.


Feels Like: 61 °F
Forecast: 62 / 42 °F
Wind: 6 mph from South

Location: Albany County Airport

Current Time: Oct 16, 2019 at 4:01:46 pm

Latest Report: Oct 16, 2019 at 2:51 pm


Visibility: 10 mi

Pressure: 29.75 "Hg

Humidity: 60%

Dew Point: 47 °F

Location of AlbanyLocation

Past Weather in Albany — Graph

°F

Albany Temperature Yesterday

Maximum temperature yesterday: 62 °F (at 3:51 pm)
Minimum temperature yesterday: 39 °F (at 6:51 am)
Average temperature yesterday: 50 °F

High & Low Weather Summary for the Past Weeks

 TemperatureHumidityPressure
High77 °F (Oct 1, 4:51 pm)93% (Oct 8, 2:51 am)30.51 "Hg (Oct 8, 2:51 am)
Low36 °F (Oct 5, 3:51 am)34% (Oct 11, 2:51 pm)29.75 "Hg (Oct 16, 2:51 pm)
Average55 °F71%30.13 "Hg
* Reported Oct 1 2:51 pm — Oct 16 2:51 pm, Albany. Weather by CustomWeather, © 2019

Note: Actual official high and low records may vary slightly from our data, if they occured in-between our weather recording intervals... More about our weather records

Advertising

Albany Weather History for the Previous 24 Hours

Scroll right to see more
 ConditionsComfort  
Time TempWeatherWind HumidityBarometerVisibility
2:51 pm
Wed, Oct 16
61 °FMostly cloudy.6 mph60%29.75 "Hg10 mi
1:51 pm62 °FMostly cloudy.15 mph58%29.77 "Hg10 mi
12:51 pm62 °FPartly sunny.9 mph56%29.80 "Hg10 mi
11:51 am58 °FOvercast.7 mph62%29.84 "Hg10 mi
10:51 am56 °FBroken clouds.8 mph65%29.88 "Hg10 mi
9:51 am55 °FPartly sunny.12 mph64%29.89 "Hg10 mi
8:51 am53 °FPartly sunny.15 mph66%29.91 "Hg10 mi
7:51 am51 °FScattered clouds.8 mph71%29.93 "Hg10 mi
6:51 am39 °FLight fog.3 mph82%29.97 "Hg10 mi
5:51 am41 °FClear.No wind80%29.98 "Hg10 mi
4:51 am42 °FClear.3 mph76%29.99 "Hg10 mi
3:51 am42 °FClear.5 mph76%30.01 "Hg10 mi
2:51 am44 °FPassing clouds.5 mph71%30.03 "Hg10 mi
1:51 am40 °FPassing clouds.3 mph89%30.05 "Hg10 mi
12:51 am42 °FPassing clouds.No wind82%30.05 "Hg10 mi
11:51 pm
Tue, Oct 15
42 °FPassing clouds.No wind79%30.06 "Hg10 mi
10:51 pm43 °FPassing clouds.No wind79%30.07 "Hg10 mi
9:51 pm46 °FPassing clouds.No wind73%30.08 "Hg10 mi
8:51 pm46 °FPassing clouds.No wind71%30.08 "Hg10 mi
7:51 pm50 °FPassing clouds.No wind63%30.08 "Hg10 mi
6:51 pm54 °FPassing clouds.3 mph53%30.07 "Hg10 mi
5:51 pm58 °FPassing clouds.6 mph46%30.07 "Hg10 mi
4:51 pm60 °FPassing clouds.7 mph39%30.07 "Hg10 mi
Weather by CustomWeather, © 2019

See weather overview